Regional Weather Roundup
Issued by NWS

Home | Current Version | Previous Version | Graphics & Text | Print | Product List | Glossary On
Versions: 1 2 3 4 5 6 7 8 9 10 11 12 13 14 15 16 17 18 19 20 21 22 23 24 25 26 27 28 29 30 31 32 33 34 35 36 37 38 39 40 41 42 43 44 45 46 47 48 49 50
000
ASUS43 KLMK 201910
RWRKY
KENTUCKY REGIONAL WEATHER ROUNDUP
NATIONAL WEATHER SERVICE LOUISVILLE KY
200 PM EST MON FEB 20 2017

NOTE "FAIR" INDICATES FEW OR NO CLOUDS BELOW 12,000 FEET
WITH NO SIGNIFICANT WEATHER AND/OR OBSTRUCTIONS TO VISIBILITY.

KYZ001>023-026-027-061>063-070>075-202000-
WESTERN AND SOUTH CENTRAL KENTUCKY

CITY           SKY/WX    TMP DP  RH WIND       PRES   REMARKS
PADUCAH        MOSUNNY   72  52  49 S10       30.06F
HENDERSON      MOSUNNY   70  54  56 SE9       30.08F
OWENSBORO      MOSUNNY   70  49  47 S10       30.10F
HOPKINSVILLE   PTSUNNY   70  48  46 S10       30.09F
BOWLING GREEN  SUNNY     73  47  39 SE8       30.11F
GLASGOW        PTSUNNY   71  42  35 SE5       30.13F
$$

KYZ024-025-028>034-038-045-046-053-202000-
NORTH CENTRAL KENTUCKY

CITY           SKY/WX    TMP DP  RH WIND       PRES   REMARKS
LOUISVILLE/SDF MOSUNNY   70  47  43 S8        30.13F
LOUISVILLE/LOU SUNNY     69  49  48 SE6       30.14F
FORT KNOX      SUNNY     68  51  54 E5        30.11F
$$

KYZ035>037-039>044-047>052-055>060-089>105-202000-
NORTHEAST KENTUCKY

CITY           SKY/WX    TMP DP  RH WIND       PRES   REMARKS
LEXINGTON      MOSUNNY   68  46  45 E9        30.15F
COVINGTON      CLOUDY    59  49  69 SE10      30.16F
FRANKFORT      MOSUNNY   69  47  45 SE7       30.13F
$$

KYZ054-064>069-076>088-106>120-202000-
SOUTHEAST KENTUCKY

CITY           SKY/WX    TMP DP  RH WIND       PRES   REMARKS
JACKSON        MOSUNNY   69  45  41 MISG      30.18F
LONDON         CLOUDY    68  41  37 CALM      30.16F
SOMERSET       MOSUNNY   66  43  42 CALM      30.16F
MIDDLESBORO    MOSUNNY   66  44  45 CALM      30.17F
MONTICELLO     PTCLDY    68  46  45 NW5       30.16F
$$




USA.gov is the U.S. government's official web portal to all federal, state and local government web resources and services.